Location: Béaulencourt
(50.0796°N, 2.8795°E)
Time: 05:53:14
(UTC+00:00)

CZ-4C R/B - Visible Passes

Search period start: 17 April 2026 00:00
Search period end: 27 April 2026 00:00
Orbit: 477 x 1500 km, 63.4° (Epoch: 16 April)

Date Brightness Start Highest point End Pass type
(mag) Time Alt. Az. Time Alt. Az. Time Alt. Az.
17 Apr 4.1 00:44:27 12° E 00:44:27 12° E 00:45:44 10° E visible
17 Apr 1.7 02:29:21 48° SW 02:30:36 87° SE 02:36:07 10° NE visible
17 Apr 3.5 04:15:20 10° W 04:19:34 29° NNW 04:24:52 10° NE visible
18 Apr 3.1 01:13:01 28° ESE 01:13:01 28° ESE 01:16:55 10° ENE visible
18 Apr 2.3 02:57:55 26° WSW 03:00:19 51° NW 03:05:55 10° NE visible
19 Apr 1.7 01:41:33 63° SE 01:41:43 64° SE 01:47:03 10° NE visible
19 Apr 3.2 03:26:27 12° W 03:30:21 33° NNW 03:35:46 10° NE visible
20 Apr 3.7 00:25:10 18° E 00:25:10 18° E 00:27:31 10° ENE visible
20 Apr 1.9 02:10:04 46° WSW 02:11:17 66° NW 02:16:53 10° NE visible
20 Apr 3.8 03:56:25 10° WNW 04:00:38 26° NNW 04:05:49 10° NE visible
21 Apr 2.5 00:53:39 41° E 00:53:39 41° E 00:57:55 10° NE visible
21 Apr 2.9 02:38:32 21° W 02:41:11 39° NNW 02:46:42 10° NE visible
21 Apr 4.2 23:37:12 11° E 23:37:12 11° E 23:37:46 10° ENE visible
22 Apr 1.6 01:22:06 82° WSW 01:22:18 87° NW 01:27:51 10° NE visible
22 Apr 3.6 03:07:08 10° W 03:11:21 28° NNW 03:16:37 10° NE visible
23 Apr 3.3 00:05:37 26° E 00:05:37 26° E 00:08:43 10° NE visible
23 Apr 2.5 01:50:30 35° W 01:52:04 48° NW 01:57:39 10° NE visible
23 Apr 4.1 03:37:30 10° WNW 03:41:42 24° N 03:46:51 10° NE visible
24 Apr 2.0 00:34:00 61° E 00:34:00 61° E 00:38:47 10° NE visible
24 Apr 3.4 02:18:53 16° W 02:22:08 32° NNW 02:27:30 10° NE visible
24 Apr 3.8 23:17:28 17° E 23:17:28 17° E 23:19:22 10° ENE visible
25 Apr 2.0 01:02:21 56° W 01:03:00 62° NW 01:08:37 10° NE visible
25 Apr 4.0 02:48:12 10° WNW 02:52:25 25° NNW 02:57:35 10° NE visible
25 Apr 2.6 23:45:47 39° E 23:45:47 39° E 23:49:40 10° NE visible
26 Apr 3.1 01:30:39 24° W 01:32:56 38° NNW 01:38:25 10° NE visible
26 Apr 4.3 03:18:32 10° NW 03:22:49 23° N 03:28:02 10° NE visible
26 Apr 4.1 22:29:10 12° ENE 22:29:10 12° ENE 22:29:44 10° ENE visible
